Wind_Speed
4 4 5 7 7 8 9 9 10 9 9 10 11 12 13 13 13 13 16 19 21 22 26 31 34 38 40 42 45 47 49 52 53 56 57 56 56 58 61 63 68 78 82 82 78
6 6 7 8 8 8 8 9 8 8 9 10 11 13 14 14 16 16 17 19 21 25 29 33 37 42 43 46 49 51 55 56 56 56 57 60 63 64 67 72 79 82 78 73 71
8 8 9 9 9 9 9 10 7 8 9 10 13 15 15 17 18 18 18 20 24 27 31 34 39 41 45 51 53 56 57 60 58 59 60 63 67 71 75 79 74 67 65 65 64
9 9 10 10 10 9 9 10 7 8 9 11 14 16 18 19 19 19 21 25 27 30 33 37 43 45 50 53 57 59 63 64 63 61 64 68 73 78 83 76 67 56 49 38 36
8 9 8 8 9 8 10 9 7 7 9 13 16 18 19 21 21 21 24 26 28 34 39 41 45 46 53 57 59 61 66 66 65 66 66 73 80 81 75 67 52 40 28 26 27
7 7 8 8 7 7 8 6 6 8 11 15 17 18 18 20 21 23 25 26 31 38 40 43 45 49 55 60 60 66 67 68 69 68 71 75 82 81 68 56 41 24 23 22 19
6 6 6 5 6 7 6 5 7 11 14 17 18 19 21 21 21 23 25 30 35 40 41 44 47 52 56 58 62 66 68 70 70 73 76 81 75 76 58 41 24 20 21 16 17
4 3 3 3 4 5 5 6 9 13 16 17 18 20 19 20 21 25 29 32 35 40 42 47 49 54 57 60 63 69 71 69 71 75 77 84 77 64 48 27 16 19 17 20 21
3 2 2 3 4 4 5 7 12 15 17 17 19 19 19 19 22 26 30 34 38 42 45 47 51 54 58 60 66 71 72 71 72 76 79 85 79 57 31 17 14 17 20 25 28
4 4 3 4 5 4 5 8 13 16 16 16 18 18 18 21 25 28 33 37 42 43 44 46 53 57 57 62 70 73 73 73 74 76 79 85 74 51 25 13 13 17 18 25 29
6 6 6 5 4 4 6 10 14 15 17 18 19 20 22 25 29 32 36 39 42 42 44 48 53 58 62 66 70 73 72 74 74 77 81 84 67 41 23 15 16 18 19 22 27
7 4 3 2 1 5 8 11 15 17 18 20 20 21 23 26 29 34 36 40 43 42 45 51 55 61 63 66 69 71 70 72 74 77 82 77 57 33 23 18 20 22 21 21 23
4 2 3 2 5 8 10 14 16 18 19 19 22 22 22 25 29 34 37 41 43 43 47 52 55 59 61 65 67 71 71 70 74 76 80 72 47 28 24 21 21 21 20 19 23
3 3 3 5 8 11 14 16 19 19 20 20 22 24 24 26 30 35 40 43 44 43 48 52 54 56 60 65 69 71 71 70 71 76 78 73 44 26 21 19 21 24 27 28 32
6 6 6 8 11 14 16 19 21 21 23 24 22 26 28 32 35 39 40 42 42 43 46 49 52 56 61 67 70 70 70 71 70 74 75 73 47 30 24 27 29 32 32 35 37
8 9 10 11 14 18 20 22 22 22 23 26 26 27 29 32 33 36 40 41 40 41 45 49 53 56 62 67 68 69 68 71 70 71 71 73 58 33 30 33 35 37 39 41 42
11 9 10 14 19 21 23 23 24 22 23 25 26 28 31 33 35 36 38 38 38 46 48 49 54 56 61 66 69 69 69 69 69 72 71 69 62 40 33 37 40 42 44 45 45
13 15 16 18 20 22 24 24 22 22 23 25 27 29 34 38 37 37 38 36 40 45 48 50 54 58 62 67 70 70 70 71 73 73 73 67 64 45 31 38 39 43 45 46 48
15 16 18 19 20 21 21 20 22 23 25 28 29 33 36 37 35 37 36 36 40 43 47 50 52 57 62 67 69 67 68 68 68 69 73 68 70 61 44 36 40 45 49 50 50
18 18 19 20 21 21 22 22 23 26 28 30 32 34 36 35 34 35 35 38 39 42 47 49 53 57 62 65 67 65 66 70 69 70 72 73 75 67 54 38 43 46 50 52 53
20 21 21 21 21 21 21 22 24 25 27 29 32 35 37 37 32 29 34 38 40 44 47 50 52 56 61 65 67 66 64 66 68 68 72 78 75 73 68 45 43 47 53 55 56
23 22 22 23 23 22 22 23 25 27 29 29 32 35 37 38 31 29 34 38 41 44 46 47 52 55 60 64 67 66 64 64 67 68 70 76 74 78 71 55 46 48 53 57 61
24 23 23 24 24 24 24 25 25 27 29 30 33 34 36 35 32 34 36 38 42 44 46 47 50 55 60 63 67 67 64 63 67 68 67 72 74 77 71 62 47 49 55 59 58
25 26 25 25 26 26 26 27 28 29 30 32 35 35 36 35 31 34 37 38 42 44 45 47 50 52 59 61 66 67 66 64 67 69 69 70 74 74 73 69 46 48 57 61 61
27 27 28 28 27 28 27 29 30 31 33 34 35 36 37 36 33 33 36 39 42 44 45 49 50 48 54 56 61 66 65 63 65 68 69 73 76 79 77 76 62 51 59 64 66
29 29 29 31 31 31 30 31 34 33 34 35 36 38 39 37 36 38 40 41 43 47 47 47 50 49 50 55 59 63 67 63 63 68 69 73 75 80 77 78 75 58 61 67 67
33 32 32 30 32 35 35 37 36 36 34 36 36 39 39 37 37 35 39 38 41 45 47 48 50 51 50 55 58 62 63 65 61 66 69 71 73 76 79 79 78 63 64 70 73
Wind_Direction
225 254 273 297 311 315 317 319 319 319 334 350 350 344 344 345 341 331 335 341 337 331 334 337 339 339 339 339 337 338 336 335 331 322 314 309 306 307 304 301 299 300 298 295 290
255 272 286 296 299 307 315 319 319 325 339 346 342 345 346 344 341 333 335 332 329 330 331 336 340 338 339 339 342 340 337 335 328 318 314 313 314 310 307 309 306 301 296 287 278
257 270 282 294 305 309 309 322 330 335 342 341 343 342 341 341 337 337 332 331 333 332 332 338 338 338 339 341 338 339 339 336 328 321 318 320 317 317 315 312 305 295 287 280 277
261 270 276 283 301 312 313 327 327 334 337 339 340 340 340 339 342 339 338 336 333 332 334 337 339 340 338 339 340 341 340 336 328 324 322 323 323 321 319 311 302 293 285 278 270
266 273 277 281 294 304 318 325 330 335 339 337 336 338 340 344 339 336 336 334 333 336 339 339 339 338 340 341 341 338 340 335 330 327 326 327 328 327 318 308 299 291 280 271 274
281 280 279 285 295 308 324 327 329 335 336 334 334 333 336 338 339 338 337 337 343 343 338 341 338 340 339 342 338 341 339 335 331 329 330 331 333 328 319 307 297 286 274 276 279
286 278 282 295 314 327 329 336 331 334 334 331 330 336 339 341 340 340 338 343 346 342 341 339 341 340 340 336 341 340 339 336 333 334 337 337 340 328 319 308 296 277 275 266 280
297 288 289 316 329 339 333 329 332 336 332 330 335 338 339 339 340 341 345 344 342 341 341 343 341 342 337 339 341 341 340 339 339 336 341 341 341 328 322 311 291 279 263 260 275
309 285 312 339 345 339 323 330 337 335 334 334 338 338 337 341 343 345 345 345 344 344 344 342 341 340 342 340 343 342 341 341 339 340 346 348 345 336 322 309 287 291 271 270 276
304 303 306 324 332 314 317 331 337 333 334 334 336 339 339 343 341 340 343 343 346 344 342 340 340 343 341 344 345 343 342 343 343 344 351 350 346 341 340 324 313 303 294 272 279
305 294 291 299 295 309 326 331 332 333 333 335 337 338 340 342 340 342 343 344 344 343 342 339 341 342 345 347 345 344 344 344 346 346 353 353 348 346 350 339 332 324 309 287 284
315 293 267 278 323 332 333 331 334 334 335 337 338 338 336 337 338 341 343 344 345 344 341 341 342 345 347 346 344 344 345 344 348 353 354 356 349 348 349 338 328 324 314 297 288
6 75 89 37 350 338 330 330 332 333 336 336 336 337 334 335 335 340 343 346 346 344 343 343 344 346 346 346 346 344 344 348 348 354 355 359 353 352 342 337 331 323 316 310 302
28 39 17 353 338 336 334 333 332 332 335 336 334 332 332 333 335 339 344 345 344 342 344 343 345 346 346 347 347 344 345 349 353 355 359 2 357 357 349 337 326 317 317 313 300
308 308 321 326 331 331 333 335 334 333 334 332 331 333 331 335 338 339 342 341 343 344 344 344 346 348 349 348 346 346 344 350 356 357 0 2 357 353 340 325 325 326 321 315 318
320 305 298 311 319 322 324 330 331 330 331 330 329 331 334 334 336 337 338 340 342 344 343 347 348 350 349 348 346 346 346 347 356 1 3 1 357 348 341 334 333 328 324 324 325
339 326 308 309 316 319 320 324 327 328 329 333 332 330 330 335 337 336 337 343 344 344 347 348 349 351 350 349 348 346 345 349 356 5 4 -0 357 338 334 330 327 326 325 325 323
327 322 317 315 315 316 320 323 327 329 331 331 328 329 329 329 332 338 342 346 348 346 347 352 351 352 351 351 348 347 348 356 359 4 4 1 359 346 321 325 323 324 325 326 326
323 324 324 323 324 327 329 329 329 327 327 328 329 329 331 331 335 340 346 348 350 350 350 352 353 352 352 351 349 349 351 351 355 360 4 5 359 354 338 327 326 330 328 324 322
316 316 319 322 323 324 326 326 324 325 325 325 332 335 340 340 340 342 345 347 351 352 353 354 353 353 354 352 351 349 350 351 358 0 2 5 357 358 349 331 329 331 328 330 331
310 314 317 320 322 325 327 327 327 327 326 330 334 338 342 344 344 347 346 346 351 353 354 354 354 352 353 353 351 350 351 351 356 2 358 359 358 359 354 345 332 336 333 332 328
304 309 314 320 323 324 323 324 326 327 329 331 332 338 341 343 347 347 348 346 348 351 353 353 353 352 354 354 351 352 349 351 354 360 359 357 358 358 355 349 338 338 334 332 330
299 303 309 314 319 323 320 322 326 328 329 332 332 336 339 342 341 344 345 345 344 349 350 352 352 350 356 355 352 351 348 350 351 356 1 357 359 357 354 353 341 340 336 335 331
296 299 301 305 311 317 318 318 321 324 325 330 332 333 336 339 336 338 340 341 341 346 348 349 351 354 353 355 352 350 348 349 349 355 359 356 358 359 354 357 349 342 341 337 339
293 295 296 299 304 308 312 313 315 319 322 326 329 333 335 335 334 334 337 337 340 342 345 345 349 352 352 357 353 351 349 347 348 352 357 358 356 356 355 356 353 348 347 342 345
290 294 295 298 298 302 305 310 311 314 318 322 325 328 333 331 333 333 332 334 338 339 340 343 344 347 355 357 355 352 349 347 348 351 354 358 358 355 356 355 354 349 350 344 347
286 287 292 301 298 302 303 304 311 308 313 315 319 324 328 327 329 328 327 331 335 334 334 339 342 344 353 355 355 355 348 348 348 347 351 357 358 356 355 354 356 354 351 350 347
Height
5874 5874 5874 5874 5873 5873 5872 5871 5870 5869 5868 5867 5866 5864 5862 5859 5857 5855 5852 5849 5847 5844 5840 5837 5834 5829 5825 5820 5814 5810 5805 5798 5792 5784 5775 5768 5761 5751 5744 5737 5728 5714 5707 5703 5700
5873 5873 5873 5873 5873 5872 5871 5871 5870 5868 5868 5867 5865 5863 5861 5858 5856 5853 5851 5848 5844 5840 5837 5834 5829 5824 5819 5814 5810 5804 5796 5789 5781 5772 5761 5750 5741 5734 5726 5714 5702 5694 5682 5676 5672
5873 5873 5873 5872 5872 5871 5871 5870 5869 5868 5867 5866 5864 5862 5859 5856 5854 5850 5847 5845 5842 5838 5835 5830 5826 5821 5815 5809 5800 5792 5785 5777 5768 5757 5746 5737 5725 5713 5702 5693 5680 5667 5657 5651 5648
5872 5872 5872 5871 5871 5870 5870 5869 5868 5868 5867 5865 5863 5860 5857 5855 5853 5848 5845 5842 5838 5835 5830 5826 5821 5816 5808 5801 5793 5784 5776 5766 5755 5744 5733 5721 5707 5696 5676 5662 5650 5641 5636 5633 5632
5870 5870 5870 5870 5870 5870 5869 5869 5868 5867 5866 5864 5861 5859 5856 5852 5849 5846 5843 5839 5836 5831 5825 5821 5816 5810 5802 5794 5785 5777 5765 5756 5744 5733 5722 5706 5688 5675 5655 5635 5627 5623 5622 5621 5622
5869 5869 5869 5869 5869 5869 5868 5868 5867 5866 5864 5862 5860 5857 5855 5852 5847 5844 5841 5837 5832 5827 5822 5818 5810 5804 5795 5786 5778 5766 5756 5745 5733 5721 5708 5692 5674 5650 5632 5618 5612 5612 5611 5612 5614
5868 5868 5868 5868 5868 5868 5867 5867 5866 5864 5863 5860 5857 5855 5852 5849 5845 5842 5838 5833 5828 5823 5818 5811 5804 5796 5788 5782 5769 5759 5747 5735 5720 5705 5692 5674 5651 5628 5613 5604 5603 5603 5604 5606 5607
5867 5867 5867 5867 5867 5867 5866 5866 5865 5863 5860 5858 5855 5853 5849 5846 5842 5838 5833 5829 5824 5819 5812 5805 5797 5789 5783 5772 5764 5750 5737 5725 5708 5695 5681 5662 5643 5611 5598 5596 5597 5598 5599 5600 5601
5866 5866 5866 5866 5866 5866 5866 5865 5863 5861 5859 5856 5854 5850 5848 5844 5840 5836 5831 5826 5820 5813 5806 5798 5792 5786 5775 5763 5755 5742 5727 5715 5702 5685 5668 5646 5628 5606 5594 5592 5593 5594 5595 5595 5594
5865 5865 5865 5865 5865 5865 5865 5864 5862 5860 5857 5854 5852 5850 5846 5840 5837 5832 5827 5821 5815 5809 5803 5796 5787 5777 5769 5759 5744 5731 5719 5706 5687 5676 5659 5640 5617 5599 5592 5591 5591 5591 5589 5589 5588
5864 5864 5864 5864 5864 5864 5864 5863 5863 5860 5856 5852 5849 5845 5841 5837 5833 5827 5822 5817 5813 5806 5798 5791 5782 5771 5760 5748 5736 5722 5708 5695 5679 5664 5650 5628 5610 5598 5592 5589 5588 5586 5584 5582 5581
5862 5862 5863 5863 5863 5863 5863 5861 5859 5858 5854 5849 5846 5842 5838 5834 5830 5825 5821 5815 5808 5801 5793 5785 5775 5765 5754 5742 5729 5715 5704 5692 5677 5656 5641 5623 5607 5596 5592 5588 5585 5582 5577 5575 5572
5862 5862 5863 5864 5864 5863 5862 5860 5857 5854 5851 5848 5843 5840 5836 5833 5827 5823 5818 5811 5803 5796 5788 5779 5771 5759 5750 5738 5727 5710 5697 5684 5669 5654 5638 5623 5607 5596 5589 5586 5581 5576 5572 5569 5565
5863 5863 5863 5863 5864 5861 5860 5857 5854 5851 5849 5846 5841 5836 5833 5829 5825 5818 5810 5805 5798 5791 5783 5775 5766 5756 5744 5732 5719 5706 5690 5677 5665 5645 5631 5615 5605 5597 5590 5584 5578 5573 5569 5565 5559
5863 5863 5862 5862 5861 5860 5859 5855 5852 5849 5846 5844 5839 5834 5828 5823 5818 5812 5808 5801 5794 5786 5781 5773 5761 5750 5738 5725 5712 5701 5685 5670 5658 5642 5627 5613 5600 5592 5585 5579 5574 5568 5563 5557 5551
5862 5861 5861 5861 5859 5858 5855 5852 5850 5848 5843 5839 5833 5829 5826 5821 5816 5811 5803 5797 5789 5784 5776 5765 5755 5746 5733 5719 5708 5696 5683 5668 5653 5639 5620 5604 5594 5587 5581 5574 5568 5562 5556 5551 5545
5860 5859 5859 5858 5856 5853 5851 5849 5847 5842 5840 5836 5831 5826 5821 5816 5811 5806 5800 5793 5786 5778 5770 5762 5751 5741 5729 5717 5702 5687 5676 5664 5650 5633 5613 5597 5588 5579 5574 5566 5560 5553 5546 5541 5535
5858 5857 5856 5854 5852 5849 5847 5845 5842 5839 5835 5832 5827 5823 5817 5811 5807 5800 5793 5787 5781 5773 5765 5756 5744 5735 5723 5709 5693 5679 5665 5649 5632 5621 5615 5600 5587 5578 5567 5561 5554 5548 5540 5532 5523
5856 5854 5853 5851 5848 5846 5844 5841 5838 5835 5832 5828 5824 5819 5814 5806 5800 5794 5788 5783 5777 5769 5761 5751 5741 5730 5718 5704 5688 5672 5660 5650 5640 5626 5613 5601 5584 5572 5560 5554 5547 5540 5530 5521 5514
5853 5852 5850 5848 5845 5843 5841 5838 5834 5831 5828 5823 5819 5815 5808 5802 5796 5790 5783 5779 5773 5765 5757 5747 5738 5726 5716 5702 5689 5672 5657 5640 5630 5613 5605 5597 5578 5567 5554 5547 5540 5532 5523 5514 5502
5851 5849 5847 5845 5842 5840 5838 5835 5831 5828 5824 5820 5816 5810 5805 5799 5793 5787 5782 5776 5768 5761 5754 5743 5734 5724 5711 5699 5684 5669 5654 5639 5630 5616 5597 5585 5575 5561 5549 5540 5534 5526 5513 5501 5491
5847 5846 5844 5841 5841 5837 5835 5831 5829 5825 5820 5816 5812 5807 5801 5794 5790 5784 5778 5770 5763 5756 5748 5740 5730 5719 5709 5696 5681 5668 5652 5639 5626 5613 5597 5583 5572 5554 5542 5532 5523 5515 5503 5492 5478
5843 5842 5840 5838 5836 5834 5831 5828 5825 5821 5817 5813 5808 5803 5798 5792 5785 5780 5774 5768 5760 5753 5743 5735 5728 5715 5706 5692 5678 5665 5650 5638 5625 5612 5602 5584 5573 5555 5541 5529 5515 5506 5495 5481 5466
5838 5837 5835 5833 5831 5829 5826 5824 5821 5817 5813 5809 5804 5799 5795 5790 5784 5778 5771 5765 5757 5749 5742 5733 5723 5713 5700 5686 5673 5659 5646 5633 5618 5606 5594 5580 5567 5560 5540 5525 5513 5502 5487 5471 5454
5832 5832 5829 5828 5826 5824 5822 5819 5815 5813 5809 5804 5801 5796 5790 5785 5779 5773 5768 5761 5753 5744 5738 5728 5721 5714 5700 5687 5674 5659 5646 5632 5618 5604 5590 5576 5557 5544 5527 5513 5502 5490 5477 5461 5445
5825 5825 5824 5822 5820 5818 5815 5813 5810 5806 5803 5800 5796 5791 5786 5780 5775 5768 5762 5756 5749 5740 5732 5726 5717 5710 5700 5687 5674 5660 5644 5631 5616 5599 5585 5570 5556 5538 5525 5507 5492 5478 5465 5448 5432
5818 5817 5817 5817 5814 5812 5810 5806 5804 5800 5799 5793 5789 5785 5781 5776 5770 5764 5757 5752 5745 5736 5728 5722 5713 5702 5695 5683 5671 5661 5645 5631 5618 5600 5585 5570 5557 5540 5523 5501 5486 5473 5457 5436 5419